Location: Unspecified
(0.0000°N, 0.0000°E)
Time: 21:00:47
(UTC+00:00)

CZ-3 Stage 3 - Pass Details

Date: 21 May 2019
Orbit: 501 x 34691 km, 30.5° (Epoch: 16 June)

Event Time Altitude Azimuth Distance (km) Brightness Sun altitude
Rises 03:37:24 0° 311° (NW) 7,678 7.4 -32.4°
Reaches altitude 10° 03:40:57 10° 316° (NW) 7,732 7.4 -31.6°
Maximum altitude 07:14:33 88° 327° (NNW) 33,158 11.0 18.3°
Drops below altitude 10° 13:14:40 10° 136° (SE) 6,273 7.0 62.2°
Sets 13:17:51 0° 127° (SE) 6,290 6.9 61.7°
